Home > Weather > Bentonville > Past weeks

Flag for USA Past Weather in Bentonville, Arkansas, USA — Yesterday and Last 2 Weeks

Now
81 °F

Sunny.


Feels Like: 85 °F
Forecast: 72 / 84 °F
Wind: 5 mph from Southeast

Location: Bentonville Weather Observing Station

Current Time: Jul 27, 2016 at 10:27:53 AM

Latest Report: Jul 27, 2016 at 9:55 AM


Visibility: 10 mi

Pressure: 30.02 "Hg

Humidity: 74%

Dew Point: 72 °F

Location of BentonvilleLocation

Past Weather in Bentonville — Graph

°F

Bentonville Temperature Yesterday

Maximum temperature yesterday: 91 °F (at 1:55 PM)
Minimum temperature yesterday: 73 °F (at 4:35 AM)
Average temperature yesterday: 78 °F

High & Low Weather Summary for the Past Weeks

 TemperatureHumidityPressure
High97 °F (Jul 23, 5:35 PM)89% (Jul 19, 5:15 AM)30.28 "Hg (Jul 19, 5:15 AM)
Low66 °F (Jul 14, 5:15 PM)41% (Jul 22, 4:55 PM)29.91 "Hg (Jul 12, 6:35 PM)
Average81 °F69%30.07 "Hg
* Reported Jul 12 9:15 AM — Jul 27 9:15 AM, Bentonville, Weather by CustomWeather, © 2016

Note: Actual official high and low records may vary slightly from our data, if they occured in-between our weather recording intervals... More about our weather records

Advertising

Bentonville Weather History for the Previous 24 Hours

Scroll right to see more
 ConditionsComfort  
Time TempWeatherWind HumidityBarometerVisibility
9:15 AM
Wed, Jul 27
79 °FSunny.6 mph79%30.03 "Hg10 mi
8:55 AM75 °FSunny.5 mph89%30.03 "Hg10 mi
8:35 AM77 °FSunny.7 mph83%30.02 "Hg10 mi
8:15 AM73 °FSunny.No wind89%30.02 "Hg10 mi
7:55 AM73 °FSunny.3 mph89%30.02 "Hg10 mi
7:35 AM73 °FSunny.5 mph89%30.02 "Hg6 mi
6:55 AM73 °FClear.6 mph89%30.02 "Hg10 mi
6:35 AM73 °FClear.No wind89%30.02 "Hg10 mi
6:15 AM73 °FClear.3 mph83%30.01 "Hg10 mi
5:55 AM73 °FPassing clouds.3 mph83%30.00 "Hg10 mi
5:35 AM73 °FPassing clouds.5 mph83%30.00 "Hg10 mi
5:15 AM73 °FPassing clouds.3 mph83%30.00 "Hg10 mi
4:55 AM73 °FPassing clouds.5 mph89%30.00 "Hg10 mi
4:35 AM73 °FPassing clouds.5 mph89%30.00 "Hg10 mi
4:15 AM73 °FPassing clouds.5 mph89%29.99 "Hg10 mi
3:55 AM73 °FClear.3 mph83%29.98 "Hg10 mi
3:35 AM73 °FClear.No wind83%29.98 "Hg10 mi
3:15 AM73 °FClear.No wind83%29.98 "Hg10 mi
2:55 AM73 °FClear.6 mph83%29.98 "Hg10 mi
2:35 AM73 °FClear.3 mph83%29.99 "Hg10 mi
2:15 AM73 °FClear.No wind83%29.99 "Hg10 mi
1:55 AM72 °FClear.5 mph88%29.99 "Hg10 mi
1:35 AM72 °FClear.3 mph88%29.99 "Hg10 mi
1:15 AM72 °FClear.No wind88%30.00 "Hg10 mi
12:55 AM73 °FClear.3 mph83%29.99 "Hg10 mi
12:35 AM73 °FClear.No wind83%30.00 "Hg10 mi
12:15 AM73 °FClear.No wind83%30.00 "Hg10 mi
11:55 PM
Tue, Jul 26
73 °FClear.7 mph83%29.99 "Hg10 mi
11:35 PM73 °FClear.6 mph83%30.00 "Hg10 mi
10:55 PM73 °FClear.6 mph89%30.01 "Hg10 mi
10:35 PM73 °FClear.5 mph89%30.02 "Hg10 mi
10:15 PM73 °FClear.7 mph89%30.01 "Hg10 mi
9:55 PM73 °FClear.6 mph89%30.01 "Hg10 mi
9:35 PM73 °FClear.5 mph89%30.00 "Hg10 mi
9:15 PM73 °FSunny.5 mph89%30.00 "Hg10 mi
8:55 PM73 °FSunny.7 mph89%29.98 "Hg10 mi
8:35 PM75 °FSunny.6 mph83%29.99 "Hg10 mi
8:15 PM75 °FPassing clouds.No wind83%30.00 "Hg10 mi
7:55 PM75 °FBroken clouds.6 mph83%30.00 "Hg10 mi
7:35 PM75 °FOvercast.8 mph83%30.02 "Hg8 mi
7:15 PM75 °FMore clouds than sun.6 mph83%30.02 "Hg7 mi
6:55 PM75 °FOvercast.3 mph89%30.03 "Hg5 mi
6:35 PM75 °FMore clouds than sun.No wind89%30.02 "Hg4 mi
6:15 PM75 °FThundershowers. Broken clouds.3 mph83%30.01 "Hg10 mi
5:55 PM75 °FThundershowers. Passing clouds.No wind83%30.02 "Hg10 mi
5:35 PM75 °FBroken clouds.6 mph83%30.02 "Hg7 mi
5:15 PM75 °FMore clouds than sun.8 mph83%30.03 "Hg10 mi
4:55 PM77 °FThundershowers. Partly sunny.3 mph79%30.01 "Hg10 mi
4:35 PM75 °FThundershowers. More clouds than sun.3 mph83%30.00 "Hg10 mi
3:55 PM75 °FThunderstorms. Cloudy.7 mph74%30.03 "Hg1 mi
3:35 PM82 °FThundershowers. More clouds than sun.8 mph58%29.99 "Hg10 mi
3:15 PM90 °FMostly cloudy.7 mph52%29.98 "Hg10 mi
2:55 PM91 °FBroken clouds.7 mph49%29.98 "Hg10 mi
2:35 PM91 °FScattered clouds.5 mph49%29.99 "Hg10 mi
2:15 PM90 °FScattered clouds.5 mph52%30.00 "Hg10 mi
1:55 PM91 °FSunny.7 mph49%30.00 "Hg10 mi
1:35 PM90 °FPassing clouds.No wind52%30.01 "Hg10 mi
1:15 PM90 °FScattered clouds.3 mph55%30.02 "Hg10 mi
12:55 PM88 °FBroken clouds.6 mph55%30.03 "Hg10 mi
12:35 PM88 °FPassing clouds.3 mph55%30.04 "Hg10 mi
12:15 PM88 °FScattered clouds.5 mph59%30.05 "Hg10 mi
11:55 AM86 °FPassing clouds.3 mph62%30.05 "Hg10 mi
11:35 AM86 °FSunny.N/A62%30.05 "Hg10 mi
11:15 AM86 °FSunny.No wind62%30.05 "Hg10 mi
10:55 AM84 °FSunny.5 mph66%30.05 "Hg10 mi
10:35 AM84 °FSunny.5 mph62%30.05 "Hg10 mi
10:15 AM84 °FSunny.3 mph66%30.05 "Hg10 mi
Weather by CustomWeather, © 2016

See weather overviewHow to use our weather pages